Time,TemperatureF,DewpointF,PressureIn,WindDirection,WindDirectionDegrees,WindSpeedMPH,WindSpeedGustMPH,Humidity,HourlyPrecipIn,Conditions,Clouds,dailyrainin,SoftwareType,DateUTC
2013-10-24 00:01:00,28.3,27.1,29.89,North,0,0.0,0.0,96,0.00,,,0.00,WUHU216HW,2013-10-24 04:01:00,
2013-10-24 00:02:00,28.3,27.1,29.89,North,0,0.0,0.0,96,0.00,,,0.00,WUHU216HW,2013-10-24 04:02:00,
2013-10-24 00:05:00,28.3,27.1,29.89,WSW,248,0.3,0.7,96,0.00,,,0.00,WUHU216HW,2013-10-24 04:05:00,
2013-10-24 00:07:00,28.3,27.1,29.89,North,0,0.0,0.0,96,0.00,,,0.00,WUHU216HW,2013-10-24 04:07:00,
2013-10-24 00:08:00,28.3,27.1,29.89,North,0,0.0,0.0,96,0.00,,,0.00,WUHU216HW,2013-10-24 04:08:00,
2013-10-24 00:12:00,28.1,26.9,29.89,West,270,0.2,0.4,96,0.00,,,0.00,WUHU216HW,2013-10-24 04:12:00,
2013-10-24 00:17:00,28.1,26.9,29.89,NW,310,0.3,1.1,96,0.00,,,0.00,WUHU216HW,2013-10-24 04:17:00,
2013-10-24 00:22:00,27.9,26.8,29.89,NW,315,0.1,0.4,96,0.00,,,0.00,WUHU216HW,2013-10-24 04:22:00,
2013-10-24 00:27:00,27.7,26.6,29.89,North,0,0.0,0.0,96,0.00,,,0.00,WUHU216HW,2013-10-24 04:27:00,
2013-10-24 00:32:00,27.5,26.4,29.89,NW,315,0.1,0.4,96,0.00,,,0.00,WUHU216HW,2013-10-24 04:32:00,
2013-10-24 00:37:00,27.5,26.4,29.89,SW,225,0.1,0.4,96,0.00,,,0.00,WUHU216HW,2013-10-24 04:37:00,
2013-10-24 00:42:00,27.5,26.4,29.89,NW,319,1.2,1.3,96,0.00,,,0.00,WUHU216HW,2013-10-24 04:42:00,
2013-10-24 00:47:00,27.7,26.6,29.89,West,266,0.6,1.1,96,0.00,,,0.00,WUHU216HW,2013-10-24 04:47:00,
2013-10-24 00:52:00,27.7,26.6,29.89,WSW,244,0.3,0.9,96,0.00,,,0.00,WUHU216HW,2013-10-24 04:52:00,
2013-10-24 00:57:00,27.9,26.8,29.89,SW,227,0.7,1.1,96,0.00,,,0.00,WUHU216HW,2013-10-24 04:57:00,
2013-10-24 01:02:00,27.9,26.8,29.89,SW,225,0.9,1.1,96,0.00,,,0.00,WUHU216HW,2013-10-24 05:02:00,
2013-10-24 01:07:00,27.7,26.6,29.89,SW,234,1.0,1.6,96,0.00,,,0.00,WUHU216HW,2013-10-24 05:07:00,
2013-10-24 01:12:00,27.7,26.6,29.89,SW,228,2.3,2.9,96,0.00,,,0.00,WUHU216HW,2013-10-24 05:12:00,
2013-10-24 01:17:00,27.7,26.8,29.89,WSW,238,1.8,2.5,97,0.00,,,0.00,WUHU216HW,2013-10-24 05:17:00,
2013-10-24 01:22:00,27.7,26.8,29.89,SW,228,1.1,1.3,97,0.00,,,0.00,WUHU216HW,2013-10-24 05:22:00,
2013-10-24 01:27:00,27.7,26.8,29.89,SW,228,1.7,2.0,97,0.00,,,0.00,WUHU216HW,2013-10-24 05:27:00,
2013-10-24 01:32:00,27.7,26.8,29.89,WSW,244,2.3,2.9,97,0.00,,,0.00,WUHU216HW,2013-10-24 05:32:00,
2013-10-24 01:37:00,27.7,26.8,29.89,SW,228,1.5,2.2,97,0.00,,,0.00,WUHU216HW,2013-10-24 05:37:00,
2013-10-24 01:42:00,27.9,27.0,29.89,WSW,241,2.7,3.4,97,0.00,,,0.00,WUHU216HW,2013-10-24 05:42:00,
2013-10-24 01:47:00,27.9,27.0,29.89,SW,217,1.9,2.2,97,0.00,,,0.00,WUHU216HW,2013-10-24 05:47:00,
2013-10-24 01:52:00,27.9,27.0,29.89,SW,227,1.4,1.6,97,0.00,,,0.00,WUHU216HW,2013-10-24 05:52:00,
2013-10-24 01:57:00,27.9,27.0,29.89,WSW,238,1.4,2.0,97,0.00,,,0.00,WUHU216HW,2013-10-24 05:57:00,
2013-10-24 02:02:00,27.9,27.0,29.89,WSW,240,1.7,2.5,97,0.00,,,0.00,WUHU216HW,2013-10-24 06:02:00,
2013-10-24 02:07:00,27.9,27.0,29.89,SW,232,0.6,0.9,97,0.00,,,0.00,WUHU216HW,2013-10-24 06:07:00,
2013-10-24 02:12:00,27.7,26.8,29.89,SW,230,1.9,2.0,97,0.00,,,0.00,WUHU216HW,2013-10-24 06:12:00,
2013-10-24 02:17:00,27.7,26.8,29.89,West,278,0.7,2.5,97,0.00,,,0.00,WUHU216HW,2013-10-24 06:17:00,
2013-10-24 02:22:00,28.1,27.5,29.89,SW,229,2.1,2.7,98,0.00,,,0.00,WUHU216HW,2013-10-24 06:22:00,
2013-10-24 02:27:00,28.4,27.8,29.89,SW,225,1.0,1.8,98,0.00,,,0.00,WUHU216HW,2013-10-24 06:27:00,
2013-10-24 02:32:00,28.4,27.8,29.89,WSW,248,1.1,1.1,98,0.00,,,0.00,WUHU216HW,2013-10-24 06:32:00,
2013-10-24 02:37:00,28.6,28.0,29.90,West,273,1.1,1.3,98,0.00,,,0.00,WUHU216HW,2013-10-24 06:37:00,
2013-10-24 02:42:00,28.6,28.0,29.90,West,266,0.9,1.8,98,0.00,,,0.00,WUHU216HW,2013-10-24 06:42:00,
2013-10-24 02:47:00,28.6,28.0,29.90,WSW,242,2.6,3.6,98,0.00,,,0.00,WUHU216HW,2013-10-24 06:47:00,
2013-10-24 02:52:00,28.4,27.8,29.90,WNW,282,3.1,3.8,98,0.00,,,0.00,WUHU216HW,2013-10-24 06:52:00,
2013-10-24 02:58:00,28.6,28.0,29.90,WSW,244,3.7,5.4,98,0.00,,,0.00,WUHU216HW,2013-10-24 06:58:00,
2013-10-24 03:03:00,28.8,28.2,29.90,SW,229,2.0,2.7,98,0.00,,,0.00,WUHU216HW,2013-10-24 07:03:00,
2013-10-24 03:08:00,29.0,28.4,29.89,SW,231,2.4,2.7,98,0.00,,,0.00,WUHU216HW,2013-10-24 07:08:00,
2013-10-24 03:13:00,29.0,28.4,29.90,WSW,250,2.1,3.6,98,0.00,,,0.00,WUHU216HW,2013-10-24 07:13:00,
2013-10-24 03:18:00,29.0,28.4,29.90,SW,235,2.8,2.9,98,0.00,,,0.00,WUHU216HW,2013-10-24 07:18:00,
2013-10-24 03:23:00,29.0,28.4,29.90,WSW,239,1.9,2.2,98,0.00,,,0.00,WUHU216HW,2013-10-24 07:23:00,
2013-10-24 03:28:00,29.2,28.6,29.90,WSW,243,2.3,2.9,98,0.00,,,0.00,WUHU216HW,2013-10-24 07:28:00,
2013-10-24 03:33:00,29.0,28.4,29.90,WSW,251,2.1,3.1,98,0.00,,,0.00,WUHU216HW,2013-10-24 07:33:00,
2013-10-24 03:38:00,28.8,28.2,29.90,WSW,245,2.1,2.7,98,0.00,,,0.00,WUHU216HW,2013-10-24 07:38:00,
2013-10-24 03:43:00,28.8,28.2,29.89,WSW,246,1.2,1.6,98,0.00,,,0.00,WUHU216HW,2013-10-24 07:43:00,
2013-10-24 03:48:00,28.8,28.2,29.90,SW,225,2.5,3.4,98,0.00,,,0.00,WUHU216HW,2013-10-24 07:48:00,
2013-10-24 03:53:00,29.0,28.4,29.89,WSW,245,1.5,2.5,98,0.00,,,0.00,WUHU216HW,2013-10-24 07:53:00,
2013-10-24 03:58:00,29.2,28.6,29.90,WSW,241,2.8,3.4,98,0.00,,,0.00,WUHU216HW,2013-10-24 07:58:00,
2013-10-24 04:03:00,29.2,28.6,29.90,WSW,251,1.3,1.6,98,0.00,,,0.00,WUHU216HW,2013-10-24 08:03:00,
2013-10-24 04:08:00,29.5,28.9,29.90,WSW,238,1.9,3.1,98,0.00,,,0.00,WUHU216HW,2013-10-24 08:08:00,
2013-10-24 04:13:00,29.7,29.1,29.90,WSW,245,1.3,1.8,98,0.00,,,0.00,WUHU216HW,2013-10-24 08:13:00,
2013-10-24 04:18:00,29.9,29.3,29.90,West,275,0.8,2.7,98,0.00,,,0.00,WUHU216HW,2013-10-24 08:18:00,
2013-10-24 04:23:00,29.9,29.3,29.90,WSW,245,1.8,2.5,98,0.00,,,0.00,WUHU216HW,2013-10-24 08:23:00,
2013-10-24 04:28:00,30.1,29.5,29.90,WNW,283,2.6,3.4,98,0.00,,,0.00,WUHU216HW,2013-10-24 08:28:00,
2013-10-24 04:33:00,30.1,29.5,29.90,WSW,248,2.0,3.4,98,0.00,,,0.00,WUHU216HW,2013-10-24 08:33:00,
2013-10-24 04:38:00,30.2,29.9,29.90,WSW,239,0.8,1.3,99,0.00,,,0.00,WUHU216HW,2013-10-24 08:38:00,
2013-10-24 04:43:00,30.6,30.3,29.90,WSW,242,1.3,2.5,99,0.00,,,0.00,WUHU216HW,2013-10-24 08:43:00,
2013-10-24 04:48:00,30.6,30.3,29.90,SW,226,2.3,2.9,99,0.00,,,0.00,WUHU216HW,2013-10-24 08:48:00,
2013-10-24 04:53:00,30.6,30.3,29.90,SW,229,3.1,3.4,99,0.00,,,0.00,WUHU216HW,2013-10-24 08:53:00,
2013-10-24 04:58:00,30.8,30.5,29.90,West,265,2.0,2.7,99,0.00,,,0.00,WUHU216HW,2013-10-24 08:58:00,
2013-10-24 05:03:00,30.8,30.5,29.90,WSW,258,0.9,1.8,99,0.00,,,0.00,WUHU216HW,2013-10-24 09:03:00,
2013-10-24 05:08:00,30.6,30.3,29.90,WSW,248,2.6,3.8,99,0.00,,,0.00,WUHU216HW,2013-10-24 09:08:00,
2013-10-24 05:13:00,30.6,30.3,29.90,SW,222,0.6,1.1,99,0.00,,,0.00,WUHU216HW,2013-10-24 09:13:00,
2013-10-24 05:18:00,30.6,30.3,29.91,WSW,244,2.1,2.5,99,0.00,,,0.00,WUHU216HW,2013-10-24 09:18:00,
2013-10-24 05:23:00,30.8,30.5,29.91,SW,232,1.9,2.2,99,0.00,,,0.00,WUHU216HW,2013-10-24 09:23:00,
2013-10-24 05:28:00,30.8,30.5,29.91,West,274,1.0,1.1,99,0.00,,,0.00,WUHU216HW,2013-10-24 09:28:00,
2013-10-24 05:33:00,31.0,30.7,29.91,West,260,1.9,2.5,99,0.00,,,0.00,WUHU216HW,2013-10-24 09:33:00,
2013-10-24 05:38:00,31.0,30.7,29.91,WSW,248,0.4,0.4,99,0.00,,,0.00,WUHU216HW,2013-10-24 09:38:00,
2013-10-24 05:43:00,31.0,30.7,29.91,WSW,248,1.3,1.8,99,0.00,,,0.00,WUHU216HW,2013-10-24 09:43:00,
2013-10-24 05:48:00,30.8,30.5,29.91,SW,235,1.3,2.2,99,0.00,,,0.00,WUHU216HW,2013-10-24 09:48:00,
2013-10-24 05:54:00,31.0,30.7,29.91,SW,225,2.0,2.5,99,0.00,,,0.00,WUHU216HW,2013-10-24 09:54:00,
2013-10-24 05:59:00,30.8,30.5,29.91,WSW,250,1.6,3.1,99,0.00,,,0.00,WUHU216HW,2013-10-24 09:59:00,
2013-10-24 06:04:00,30.8,30.5,29.91,West,260,1.8,2.5,99,0.00,,,0.00,WUHU216HW,2013-10-24 10:04:00,
2013-10-24 06:09:00,30.8,30.5,29.91,SW,233,1.1,1.3,99,0.00,,,0.00,WUHU216HW,2013-10-24 10:09:00,
2013-10-24 06:14:00,30.8,30.5,29.91,SW,231,0.5,0.9,99,0.00,,,0.00,WUHU216HW,2013-10-24 10:14:00,
2013-10-24 06:19:00,31.0,30.7,29.91,WSW,239,0.9,1.8,99,0.00,,,0.00,WUHU216HW,2013-10-24 10:19:00,
2013-10-24 06:24:00,31.0,30.7,29.92,West,276,2.0,3.1,99,0.00,,,0.00,WUHU216HW,2013-10-24 10:24:00,
2013-10-24 06:29:00,31.0,30.7,29.92,WSW,254,1.4,1.8,99,0.00,,,0.00,WUHU216HW,2013-10-24 10:29:00,
2013-10-24 06:34:00,31.1,30.8,29.92,WSW,251,1.2,1.3,99,0.00,,,0.00,WUHU216HW,2013-10-24 10:34:00,
2013-10-24 06:39:00,31.3,31.0,29.92,WNW,288,1.2,1.8,99,0.00,,,0.00,WUHU216HW,2013-10-24 10:39:00,
2013-10-24 06:44:00,31.3,31.0,29.92,WSW,248,0.7,0.9,99,0.00,,,0.00,WUHU216HW,2013-10-24 10:44:00,
2013-10-24 06:49:00,31.3,31.0,29.92,WSW,251,1.0,1.8,99,0.00,,,0.00,WUHU216HW,2013-10-24 10:49:00,
2013-10-24 06:54:00,31.3,31.0,29.92,WSW,237,0.7,1.8,99,0.00,,,0.00,WUHU216HW,2013-10-24 10:54:00,
2013-10-24 06:59:00,31.3,31.0,29.92,WSW,251,2.5,2.9,99,0.00,,,0.00,WUHU216HW,2013-10-24 10:59:00,
2013-10-24 07:04:00,31.3,31.0,29.92,WNW,284,1.0,1.8,99,0.00,,,0.00,WUHU216HW,2013-10-24 11:04:00,
2013-10-24 07:09:00,31.5,31.2,29.92,SW,226,1.4,1.6,99,0.00,,,0.00,WUHU216HW,2013-10-24 11:09:00,
2013-10-24 07:14:00,31.7,31.4,29.93,WNW,291,2.1,2.9,99,0.00,,,0.00,WUHU216HW,2013-10-24 11:14:00,
2013-10-24 07:19:00,31.7,31.4,29.93,West,264,0.9,1.1,99,0.00,,,0.00,WUHU216HW,2013-10-24 11:19:00,
2013-10-24 07:24:00,31.7,31.4,29.92,West,270,0.4,0.7,99,0.00,,,0.00,WUHU216HW,2013-10-24 11:24:00,
2013-10-24 07:29:00,31.7,31.4,29.93,WSW,248,0.9,1.6,99,0.00,,,0.00,WUHU216HW,2013-10-24 11:29:00,
2013-10-24 07:34:00,31.9,31.6,29.93,WSW,253,1.6,1.8,99,0.00,,,0.00,WUHU216HW,2013-10-24 11:34:00,
2013-10-24 07:39:00,32.0,31.7,29.93,SSW,205,1.2,2.5,99,0.00,,,0.00,WUHU216HW,2013-10-24 11:39:00,
2013-10-24 07:44:00,32.0,31.7,29.93,SW,233,2.4,3.1,99,0.00,,,0.00,WUHU216HW,2013-10-24 11:44:00,
2013-10-24 07:49:00,32.0,31.7,29.93,SW,227,1.9,2.5,99,0.00,,,0.00,WUHU216HW,2013-10-24 11:49:00,
2013-10-24 07:54:00,32.0,31.7,29.93,WSW,243,2.1,2.5,99,0.00,,,0.00,WUHU216HW,2013-10-24 11:54:00,
2013-10-24 07:59:00,32.0,31.7,29.93,WSW,250,2.9,3.8,99,0.00,,,0.00,WUHU216HW,2013-10-24 11:59:00,
2013-10-24 08:04:00,32.2,31.9,29.93,WSW,237,2.1,2.5,99,0.00,,,0.00,WUHU216HW,2013-10-24 12:04:00,
2013-10-24 08:09:00,32.2,31.9,29.94,WSW,242,1.3,2.5,99,0.00,,,0.00,WUHU216HW,2013-10-24 12:09:00,
2013-10-24 08:14:00,32.4,32.1,29.94,WNW,288,2.4,3.4,99,0.00,,,0.00,WUHU216HW,2013-10-24 12:14:00,
2013-10-24 08:19:00,32.4,32.1,29.94,SW,235,2.0,2.7,99,0.00,,,0.00,WUHU216HW,2013-10-24 12:19:00,
2013-10-24 08:24:00,32.4,32.1,29.94,SW,230,0.6,1.1,99,0.00,,,0.00,WUHU216HW,2013-10-24 12:24:00,
2013-10-24 08:29:00,32.6,32.3,29.94,WSW,255,1.6,1.8,99,0.00,,,0.00,WUHU216HW,2013-10-24 12:29:00,
2013-10-24 08:34:00,32.6,32.3,29.94,West,261,0.9,1.6,99,0.00,,,0.00,WUHU216HW,2013-10-24 12:34:00,
2013-10-24 08:39:00,32.8,32.5,29.95,West,276,0.9,1.1,99,0.00,,,0.00,WUHU216HW,2013-10-24 12:39:00,
2013-10-24 08:44:00,32.8,32.5,29.95,WSW,257,1.2,1.8,99,0.00,,,0.00,WUHU216HW,2013-10-24 12:44:00,
2013-10-24 08:50:00,32.8,32.5,29.95,West,275,1.5,2.2,99,0.00,,,0.00,WUHU216HW,2013-10-24 12:50:00,
2013-10-24 08:55:00,32.8,32.5,29.95,West,265,0.7,1.6,99,0.00,,,0.00,WUHU216HW,2013-10-24 12:55:00,
2013-10-24 09:00:00,32.9,32.6,29.96,West,281,1.2,1.8,99,0.00,,,0.00,WUHU216HW,2013-10-24 13:00:00,
2013-10-24 09:05:00,33.1,32.8,29.96,WNW,282,1.0,1.8,99,0.00,,,0.00,WUHU216HW,2013-10-24 13:05:00,
2013-10-24 09:10:00,33.3,33.0,29.96,SW,214,1.0,1.1,99,0.00,,,0.00,WUHU216HW,2013-10-24 13:10:00,
2013-10-24 09:15:00,33.5,33.2,29.96,West,273,0.9,1.8,99,0.00,,,0.00,WUHU216HW,2013-10-24 13:15:00,
2013-10-24 09:20:00,33.7,33.4,29.96,WSW,248,1.6,2.5,99,0.00,,,0.00,WUHU216HW,2013-10-24 13:20:00,
2013-10-24 09:25:00,33.7,33.4,29.97,West,263,1.8,2.5,99,0.00,,,0.00,WUHU216HW,2013-10-24 13:25:00,
2013-10-24 09:30:00,34.2,33.9,29.97,SW,228,2.8,3.6,99,0.00,,,0.00,WUHU216HW,2013-10-24 13:30:00,
2013-10-24 09:35:00,34.4,34.1,29.97,SW,236,3.0,3.6,99,0.00,,,0.00,WUHU216HW,2013-10-24 13:35:00,
2013-10-24 09:40:00,34.7,34.4,29.97,WNW,288,2.0,2.5,99,0.00,,,0.00,WUHU216HW,2013-10-24 13:40:00,
2013-10-24 09:45:00,34.9,34.6,29.97,WSW,258,1.2,1.6,99,0.00,,,0.00,WUHU216HW,2013-10-24 13:45:00,
2013-10-24 09:50:00,34.9,34.6,29.97,NNW,331,1.2,2.7,99,0.01,,,0.01,WUHU216HW,2013-10-24 13:50:00,
2013-10-24 09:55:00,34.9,34.6,29.97,WSW,253,1.4,1.6,99,0.01,,,0.01,WUHU216HW,2013-10-24 13:55:00,
2013-10-24 10:00:00,34.9,34.6,29.97,WNW,298,2.3,3.6,99,0.01,,,0.01,WUHU216HW,2013-10-24 14:00:00,
2013-10-24 10:05:00,35.1,34.5,29.98,West,261,2.0,4.0,98,0.01,,,0.01,WUHU216HW,2013-10-24 14:05:00,
2013-10-24 10:10:00,35.6,35.0,29.97,WSW,257,1.5,1.8,98,0.01,,,0.01,WUHU216HW,2013-10-24 14:10:00,
2013-10-24 10:15:00,36.4,35.8,29.97,WSW,237,2.3,3.4,98,0.01,,,0.01,WUHU216HW,2013-10-24 14:15:00,
2013-10-24 10:20:00,36.9,36.3,29.98,NNW,343,1.3,3.8,98,0.01,,,0.01,WUHU216HW,2013-10-24 14:20:00,
2013-10-24 10:25:00,37.3,36.7,29.98,WSW,241,4.3,6.5,98,0.01,,,0.01,WUHU216HW,2013-10-24 14:25:00,
2013-10-24 10:30:00,37.8,37.5,29.98,SW,225,6.2,7.2,99,0.01,,,0.01,WUHU216HW,2013-10-24 14:30:00,
2013-10-24 10:35:00,38.2,37.9,29.98,West,280,3.5,4.7,99,0.01,,,0.01,WUHU216HW,2013-10-24 14:35:00,
2013-10-24 10:40:00,38.7,38.1,29.98,West,274,3.8,6.0,98,0.01,,,0.01,WUHU216HW,2013-10-24 14:40:00,
2013-10-24 10:45:00,39.4,38.8,29.98,West,275,3.0,5.1,98,0.01,,,0.01,WUHU216HW,2013-10-24 14:45:00,
2013-10-24 10:50:00,40.1,39.5,29.98,WSW,254,4.9,6.0,98,0.00,,,0.01,WUHU216HW,2013-10-24 14:50:00,
2013-10-24 10:55:00,40.7,39.8,29.98,West,259,1.5,2.0,97,0.00,,,0.01,WUHU216HW,2013-10-24 14:55:00,
2013-10-24 11:00:00,41.0,39.8,29.98,West,272,6.4,7.8,96,0.00,,,0.01,WUHU216HW,2013-10-24 15:00:00,
2013-10-24 11:05:00,41.4,39.9,29.98,SW,224,2.9,4.5,94,0.00,,,0.01,WUHU216HW,2013-10-24 15:05:00,
2013-10-24 11:10:00,41.8,40.6,29.98,West,280,3.2,5.4,96,0.00,,,0.01,WUHU216HW,2013-10-24 15:10:00,
2013-10-24 11:15:00,42.3,40.5,29.99,West,267,3.5,5.6,93,0.00,,,0.01,WUHU216HW,2013-10-24 15:15:00,
2013-10-24 11:20:00,42.8,40.6,29.99,WNW,293,4.5,4.7,92,0.00,,,0.01,WUHU216HW,2013-10-24 15:20:00,
2013-10-24 11:25:00,43.6,41.1,29.99,West,269,1.9,5.1,91,0.00,,,0.01,WUHU216HW,2013-10-24 15:25:00,
2013-10-24 11:30:00,43.7,39.9,29.99,WNW,288,5.0,7.6,87,0.00,,,0.01,WUHU216HW,2013-10-24 15:30:00,
2013-10-24 11:35:00,44.1,40.3,29.99,West,280,2.0,3.8,87,0.00,,,0.01,WUHU216HW,2013-10-24 15:35:00,
2013-10-24 11:40:00,43.9,39.5,29.99,West,267,2.4,2.5,84,0.00,,,0.01,WUHU216HW,2013-10-24 15:40:00,
2013-10-24 11:46:00,44.8,40.0,29.99,WSW,254,4.0,5.6,83,0.00,,,0.01,WUHU216HW,2013-10-24 15:46:00,
2013-10-24 11:51:00,45.4,39.9,29.99,West,279,5.7,7.6,81,0.00,,,0.01,WUHU216HW,2013-10-24 15:51:00,
2013-10-24 11:56:00,45.7,40.2,29.99,West,279,1.5,6.3,81,0.00,,,0.01,WUHU216HW,2013-10-24 15:56:00,
2013-10-24 12:01:00,45.4,38.8,29.99,SW,236,7.0,7.4,78,0.00,,,0.01,WUHU216HW,2013-10-24 16:01:00,
2013-10-24 12:06:00,44.3,37.8,29.99,NW,319,1.9,2.5,78,0.00,,,0.01,WUHU216HW,2013-10-24 16:06:00,
2013-10-24 12:11:00,43.7,36.5,29.99,WNW,286,1.6,2.5,75,0.00,,,0.01,WUHU216HW,2013-10-24 16:11:00,
2013-10-24 12:16:00,43.4,36.9,30.00,NW,313,0.9,1.1,78,0.00,,,0.01,WUHU216HW,2013-10-24 16:16:00,
2013-10-24 12:21:00,44.1,37.6,29.99,NW,306,2.8,4.0,78,0.00,,,0.01,WUHU216HW,2013-10-24 16:21:00,
2013-10-24 12:26:00,45.5,38.6,29.99,North,358,2.4,4.0,76,0.00,,,0.01,WUHU216HW,2013-10-24 16:26:00,
2013-10-24 12:31:00,45.9,38.6,30.00,SSW,209,0.9,1.1,75,0.00,,,0.01,WUHU216HW,2013-10-24 16:31:00,
2013-10-24 12:36:00,45.2,37.2,30.00,WNW,284,7.0,7.6,73,0.00,,,0.01,WUHU216HW,2013-10-24 16:36:00,
2013-10-24 12:41:00,44.3,36.7,30.00,NW,307,1.7,1.8,74,0.00,,,0.01,WUHU216HW,2013-10-24 16:41:00,
2013-10-24 12:46:00,43.7,36.5,30.00,North,9,2.0,2.7,75,0.00,,,0.01,WUHU216HW,2013-10-24 16:46:00,
2013-10-24 12:51:00,44.3,36.7,30.00,West,280,3.3,4.7,74,0.00,,,0.01,WUHU216HW,2013-10-24 16:51:00,
2013-10-24 12:56:00,45.0,36.6,29.99,North,356,3.1,4.0,72,0.00,,,0.01,WUHU216HW,2013-10-24 16:56:00,
2013-10-24 13:01:00,45.5,37.1,30.00,SW,225,2.1,2.7,72,0.00,,,0.01,WUHU216HW,2013-10-24 17:01:00,
2013-10-24 13:06:00,45.0,36.6,29.99,West,267,2.0,3.8,72,0.00,,,0.01,WUHU216HW,2013-10-24 17:06:00,
2013-10-24 13:11:00,44.5,35.7,29.99,WNW,284,3.2,6.7,71,0.00,,,0.01,WUHU216HW,2013-10-24 17:11:00,
2013-10-24 13:16:00,45.4,37.0,29.99,West,278,4.0,6.0,72,0.00,,,0.01,WUHU216HW,2013-10-24 17:16:00,
2013-10-24 13:21:00,45.9,37.4,29.99,NNW,345,2.5,3.4,72,0.00,,,0.01,WUHU216HW,2013-10-24 17:21:00,
2013-10-24 13:26:00,46.6,37.7,29.99,ENE,58,1.7,2.2,71,0.00,,,0.01,WUHU216HW,2013-10-24 17:26:00,
2013-10-24 13:31:00,46.8,36.3,29.99,WNW,289,3.0,4.3,66,0.00,,,0.01,WUHU216HW,2013-10-24 17:31:00,
2013-10-24 13:36:00,46.1,36.0,29.99,NNW,345,1.2,2.5,67,0.00,,,0.01,WUHU216HW,2013-10-24 17:36:00,
2013-10-24 13:41:00,46.1,35.6,29.99,NNE,23,2.0,3.4,66,0.00,,,0.01,WUHU216HW,2013-10-24 17:41:00,
2013-10-24 13:46:00,47.0,37.3,29.99,WNW,296,3.1,3.6,69,0.00,,,0.01,WUHU216HW,2013-10-24 17:46:00,
2013-10-24 13:51:00,48.1,37.9,29.99,WSW,242,6.0,7.2,67,0.00,,,0.01,WUHU216HW,2013-10-24 17:51:00,
2013-10-24 13:56:00,48.8,38.6,29.99,SW,235,3.0,3.4,67,0.00,,,0.01,WUHU216HW,2013-10-24 17:56:00,
2013-10-24 14:01:00,48.6,37.1,29.99,NW,322,3.0,4.0,64,0.00,,,0.01,WUHU216HW,2013-10-24 18:01:00,
2013-10-24 14:06:00,47.7,35.8,29.99,West,260,7.6,9.4,63,0.00,,,0.01,WUHU216HW,2013-10-24 18:06:00,
2013-10-24 14:11:00,47.2,36.2,29.99,West,264,6.0,6.9,65,0.00,,,0.01,WUHU216HW,2013-10-24 18:11:00,
2013-10-24 14:16:00,47.7,35.8,29.99,WSW,248,2.2,2.7,63,0.00,,,0.01,WUHU216HW,2013-10-24 18:16:00,
2013-10-24 14:21:00,48.8,37.3,29.99,WSW,256,7.3,8.9,64,0.00,,,0.01,WUHU216HW,2013-10-24 18:21:00,
2013-10-24 14:26:00,50.0,37.5,29.99,WNW,298,3.3,5.8,62,0.00,,,0.01,WUHU216HW,2013-10-24 18:26:00,
2013-10-24 14:32:00,50.6,37.1,29.99,WNW,293,2.2,3.4,60,0.00,,,0.01,WUHU216HW,2013-10-24 18:32:00,
2013-10-24 14:37:00,50.6,37.1,29.99,WNW,284,3.5,4.0,60,0.00,,,0.01,WUHU216HW,2013-10-24 18:37:00,
2013-10-24 14:42:00,50.2,37.2,29.99,West,270,2.5,4.7,61,0.00,,,0.01,WUHU216HW,2013-10-24 18:42:00,
2013-10-24 14:47:00,49.0,35.6,29.99,North,357,3.1,3.4,60,0.00,,,0.01,WUHU216HW,2013-10-24 18:47:00,
2013-10-24 14:52:00,48.1,34.8,29.99,North,356,1.6,2.2,60,0.00,,,0.01,WUHU216HW,2013-10-24 18:52:00,
2013-10-24 14:57:00,47.5,35.1,29.99,WNW,290,4.0,5.4,62,0.00,,,0.01,WUHU216HW,2013-10-24 18:57:00,
2013-10-24 15:02:00,47.2,34.9,29.99,WSW,240,2.4,3.8,62,0.00,,,0.01,WUHU216HW,2013-10-24 19:02:00,
2013-10-24 15:07:00,46.8,34.5,29.99,NNW,347,1.4,2.7,62,0.00,,,0.01,WUHU216HW,2013-10-24 19:07:00,
2013-10-24 15:12:00,46.6,34.7,29.99,West,271,2.2,3.6,63,0.00,,,0.01,WUHU216HW,2013-10-24 19:12:00,
2013-10-24 15:17:00,46.6,35.2,29.99,NW,315,1.6,3.1,64,0.00,,,0.01,WUHU216HW,2013-10-24 19:17:00,
2013-10-24 15:22:00,46.3,34.5,29.99,NNW,329,1.4,1.8,63,0.00,,,0.01,WUHU216HW,2013-10-24 19:22:00,
2013-10-24 15:27:00,47.2,35.3,30.00,NNW,348,3.0,6.7,63,0.00,,,0.01,WUHU216HW,2013-10-24 19:27:00,
2013-10-24 15:32:00,47.5,35.1,30.00,NW,312,3.4,6.5,62,0.00,,,0.01,WUHU216HW,2013-10-24 19:32:00,
2013-10-24 15:37:00,46.6,34.7,30.00,NW,321,2.2,2.9,63,0.00,,,0.01,WUHU216HW,2013-10-24 19:37:00,
2013-10-24 15:42:00,46.3,34.9,30.00,NNW,340,3.0,4.0,64,0.00,,,0.01,WUHU216HW,2013-10-24 19:42:00,
2013-10-24 15:47:00,46.1,35.2,30.00,West,267,2.6,4.9,65,0.00,,,0.01,WUHU216HW,2013-10-24 19:47:00,
2013-10-24 15:52:00,46.4,35.4,30.01,West,261,3.4,5.1,65,0.00,,,0.01,WUHU216HW,2013-10-24 19:52:00,
2013-10-24 15:57:00,47.0,36.5,30.01,WSW,247,4.2,4.3,66,0.00,,,0.01,WUHU216HW,2013-10-24 19:57:00,
2013-10-24 16:03:00,47.2,36.6,30.01,WNW,303,3.8,4.9,66,0.00,,,0.01,WUHU216HW,2013-10-24 20:03:00,
2013-10-24 16:08:00,46.6,36.1,30.01,West,278,4.6,9.6,66,0.00,,,0.01,WUHU216HW,2013-10-24 20:08:00,
2013-10-24 16:13:00,46.8,36.7,30.01,SW,218,4.2,5.8,67,0.00,,,0.01,WUHU216HW,2013-10-24 20:13:00,
2013-10-24 16:18:00,47.0,36.5,30.01,NW,313,3.7,4.5,66,0.00,,,0.01,WUHU216HW,2013-10-24 20:18:00,
2013-10-24 16:23:00,47.2,37.1,30.01,SW,224,4.0,5.4,67,0.00,,,0.01,WUHU216HW,2013-10-24 20:23:00,
2013-10-24 16:28:00,47.9,38.2,30.01,WSW,256,4.8,6.3,69,0.00,,,0.01,WUHU216HW,2013-10-24 20:28:00,
2013-10-24 16:33:00,49.0,37.5,30.01,West,263,6.1,6.7,64,0.00,,,0.01,WUHU216HW,2013-10-24 20:33:00,
2013-10-24 16:38:00,49.3,38.2,30.01,WSW,251,6.4,8.5,65,0.00,,,0.01,WUHU216HW,2013-10-24 20:38:00,
2013-10-24 16:43:00,50.4,38.8,30.01,WSW,248,10.5,10.5,64,0.00,,,0.01,WUHU216HW,2013-10-24 20:43:00,
2013-10-24 16:48:00,49.3,37.3,30.02,SW,233,7.6,11.4,63,0.00,,,0.01,WUHU216HW,2013-10-24 20:48:00,
2013-10-24 16:53:00,48.4,36.9,30.02,WNW,294,4.3,6.3,64,0.00,,,0.01,WUHU216HW,2013-10-24 20:53:00,
2013-10-24 16:58:00,47.3,35.9,30.02,West,280,2.0,3.4,64,0.00,,,0.01,WUHU216HW,2013-10-24 20:58:00,
2013-10-24 17:03:00,46.4,35.4,30.02,West,276,3.0,4.0,65,0.00,,,0.01,WUHU216HW,2013-10-24 21:03:00,
2013-10-24 17:08:00,46.1,35.2,30.02,WNW,287,3.8,4.5,65,0.00,,,0.01,WUHU216HW,2013-10-24 21:08:00,
2013-10-24 17:13:00,45.7,35.6,30.02,West,274,2.6,5.4,67,0.00,,,0.01,WUHU216HW,2013-10-24 21:13:00,
2013-10-24 17:18:00,46.6,36.5,30.02,SW,232,4.6,5.8,67,0.00,,,0.01,WUHU216HW,2013-10-24 21:18:00,
2013-10-24 17:23:00,47.2,37.5,30.03,NW,305,5.7,7.4,69,0.00,,,0.01,WUHU216HW,2013-10-24 21:23:00,
2013-10-24 17:28:00,47.2,37.5,30.03,SW,234,6.5,8.9,69,0.00,,,0.01,WUHU216HW,2013-10-24 21:28:00,
2013-10-24 17:33:00,47.2,37.5,30.03,WSW,249,5.6,6.9,69,0.00,,,0.01,WUHU216HW,2013-10-24 21:33:00,
2013-10-24 17:38:00,46.6,36.9,30.04,West,264,4.2,6.5,69,0.00,,,0.01,WUHU216HW,2013-10-24 21:38:00,
2013-10-24 17:43:00,45.9,36.6,30.04,WSW,248,3.5,3.8,70,0.00,,,0.01,WUHU216HW,2013-10-24 21:43:00,
2013-10-24 17:48:00,45.0,36.2,30.04,SW,229,2.9,3.4,71,0.00,,,0.01,WUHU216HW,2013-10-24 21:48:00,
2013-10-24 17:53:00,44.3,35.9,30.04,WSW,242,3.8,4.5,72,0.00,,,0.01,WUHU216HW,2013-10-24 21:53:00,
2013-10-24 17:58:00,43.6,35.6,30.05,WSW,237,3.1,3.6,73,0.00,,,0.01,WUHU216HW,2013-10-24 21:58:00,
2013-10-24 18:03:00,43.2,35.6,30.05,West,275,3.3,4.3,74,0.00,,,0.01,WUHU216HW,2013-10-24 22:03:00,
2013-10-24 18:08:00,43.0,35.8,30.05,NW,304,1.8,3.1,75,0.00,,,0.01,WUHU216HW,2013-10-24 22:08:00,
2013-10-24 18:13:00,42.8,35.6,30.05,West,272,3.4,4.7,75,0.00,,,0.01,WUHU216HW,2013-10-24 22:13:00,
2013-10-24 18:18:00,42.3,35.1,30.06,WNW,289,3.0,4.0,75,0.00,,,0.01,WUHU216HW,2013-10-24 22:18:00,
2013-10-24 18:23:00,41.8,34.2,30.05,WNW,292,1.4,2.7,74,0.00,,,0.01,WUHU216HW,2013-10-24 22:23:00,
2013-10-24 18:28:00,41.4,33.9,30.06,NNW,333,2.2,3.6,74,0.00,,,0.01,WUHU216HW,2013-10-24 22:28:00,
2013-10-24 18:33:00,40.9,33.4,30.06,West,275,3.6,4.5,74,0.00,,,0.01,WUHU216HW,2013-10-24 22:33:00,
2013-10-24 18:39:00,40.5,33.4,30.06,NW,311,4.8,6.5,75,0.00,,,0.01,WUHU216HW,2013-10-24 22:39:00,
2013-10-24 18:44:00,40.1,33.0,30.07,SW,216,1.8,2.5,75,0.00,,,0.01,WUHU216HW,2013-10-24 22:44:00,
2013-10-24 18:49:00,39.6,32.5,30.07,West,270,0.2,0.4,75,0.00,,,0.01,WUHU216HW,2013-10-24 22:49:00,
2013-10-24 18:54:00,39.2,32.1,30.07,North,0,0.4,0.9,75,0.00,,,0.01,WUHU216HW,2013-10-24 22:54:00,
2013-10-24 18:59:00,38.9,32.2,30.07,West,278,1.8,2.2,76,0.00,,,0.01,WUHU216HW,2013-10-24 22:59:00,
2013-10-24 19:04:00,38.5,32.1,30.07,West,263,2.7,3.8,78,0.00,,,0.01,WUHU216HW,2013-10-24 23:04:00,
2013-10-24 19:09:00,38.2,31.8,30.07,WSW,246,2.6,3.6,78,0.00,,,0.01,WUHU216HW,2013-10-24 23:09:00,
2013-10-24 19:14:00,37.8,31.8,30.07,WSW,245,1.8,2.2,79,0.00,,,0.01,WUHU216HW,2013-10-24 23:14:00,
2013-10-24 19:19:00,37.6,31.9,30.07,WNW,283,1.6,4.7,80,0.00,,,0.01,WUHU216HW,2013-10-24 23:19:00,
2013-10-24 19:24:00,37.4,31.7,30.07,WNW,296,1.5,1.8,80,0.00,,,0.01,WUHU216HW,2013-10-24 23:24:00,
2013-10-24 19:29:00,37.1,31.5,30.08,West,263,1.5,3.4,80,0.00,,,0.01,WUHU216HW,2013-10-24 23:29:00,
2013-10-24 19:34:00,36.9,31.6,30.08,WSW,248,1.0,1.8,81,0.00,,,0.01,WUHU216HW,2013-10-24 23:34:00,
2013-10-24 19:39:00,36.5,31.2,30.08,WSW,248,0.6,0.9,81,0.00,,,0.01,WUHU216HW,2013-10-24 23:39:00,
2013-10-24 19:44:00,36.4,31.4,30.08,West,263,1.0,2.5,82,0.00,,,0.01,WUHU216HW,2013-10-24 23:44:00,
2013-10-24 19:49:00,36.0,31.1,30.08,WSW,257,1.0,2.2,82,0.00,,,0.01,WUHU216HW,2013-10-24 23:49:00,
2013-10-24 19:54:00,35.6,30.7,30.09,WSW,248,0.5,0.7,82,0.00,,,0.01,WUHU216HW,2013-10-24 23:54:00,
2013-10-24 19:59:00,35.3,30.4,30.09,West,262,0.6,0.9,82,0.00,,,0.01,WUHU216HW,2013-10-24 23:59:00,
2013-10-24 20:04:00,35.1,30.2,30.08,West,270,0.8,1.8,82,0.00,,,0.01,WUHU216HW,2013-10-25 00:04:00,
2013-10-24 20:09:00,34.7,29.8,30.09,West,281,1.4,1.8,82,0.00,,,0.01,WUHU216HW,2013-10-25 00:09:00,
2013-10-24 20:14:00,34.6,30.3,30.09,WSW,240,1.2,1.8,84,0.00,,,0.01,WUHU216HW,2013-10-25 00:14:00,
2013-10-24 20:19:00,34.4,30.1,30.09,WSW,241,0.8,2.0,84,0.00,,,0.01,WUHU216HW,2013-10-25 00:19:00,
2013-10-24 20:24:00,34.2,30.3,30.09,West,266,2.3,3.4,85,0.00,,,0.01,WUHU216HW,2013-10-25 00:24:00,
2013-10-24 20:29:00,34.2,30.3,30.09,WNW,303,1.7,2.5,85,0.00,,,0.01,WUHU216HW,2013-10-25 00:29:00,
2013-10-24 20:34:00,34.2,30.3,30.10,WSW,257,1.3,1.6,85,0.00,,,0.01,WUHU216HW,2013-10-25 00:34:00,
2013-10-24 20:40:00,34.2,30.3,30.10,NNW,334,1.4,1.6,85,0.00,,,0.01,WUHU216HW,2013-10-25 00:40:00,
2013-10-24 20:45:00,34.2,30.6,30.10,SW,234,1.2,1.6,87,0.00,,,0.01,WUHU216HW,2013-10-25 00:45:00,
2013-10-24 20:50:00,34.0,30.4,30.10,West,278,1.7,3.1,87,0.00,,,0.01,WUHU216HW,2013-10-25 00:50:00,
2013-10-24 20:55:00,33.8,30.2,30.10,WSW,256,0.4,1.8,87,0.00,,,0.01,WUHU216HW,2013-10-25 00:55:00,
2013-10-24 21:00:00,33.8,30.2,30.10,WSW,256,1.3,2.2,87,0.00,,,0.01,WUHU216HW,2013-10-25 01:00:00,
2013-10-24 21:05:00,33.7,30.1,30.10,WNW,290,1.0,1.1,87,0.00,,,0.01,WUHU216HW,2013-10-25 01:05:00,
2013-10-24 21:10:00,33.5,30.2,30.10,West,264,1.0,1.8,88,0.00,,,0.01,WUHU216HW,2013-10-25 01:10:00,
2013-10-24 21:15:00,33.3,30.0,30.10,SW,231,0.8,1.8,88,0.00,,,0.01,WUHU216HW,2013-10-25 01:15:00,
2013-10-24 21:20:00,33.1,29.8,30.10,WNW,300,0.3,0.4,88,0.00,,,0.01,WUHU216HW,2013-10-25 01:20:00,
2013-10-24 21:25:00,32.8,29.5,30.10,NW,315,0.3,0.4,88,0.00,,,0.01,WUHU216HW,2013-10-25 01:25:00,
2013-10-24 21:30:00,32.8,29.8,30.10,West,277,1.0,1.1,89,0.00,,,0.01,WUHU216HW,2013-10-25 01:30:00,
2013-10-24 21:35:00,32.6,29.6,30.10,WNW,293,0.0,0.2,89,0.00,,,0.01,WUHU216HW,2013-10-25 01:35:00,
2013-10-24 21:40:00,32.6,29.9,30.10,West,270,0.5,0.9,90,0.00,,,0.01,WUHU216HW,2013-10-25 01:40:00,
2013-10-24 21:45:00,32.6,29.9,30.10,WSW,245,0.7,0.9,90,0.00,,,0.01,WUHU216HW,2013-10-25 01:45:00,
2013-10-24 21:50:00,32.6,29.9,30.11,WSW,252,1.1,1.3,90,0.00,,,0.01,WUHU216HW,2013-10-25 01:50:00,
2013-10-24 21:55:00,32.4,29.7,30.11,West,273,1.0,1.6,90,0.00,,,0.01,WUHU216HW,2013-10-25 01:55:00,
2013-10-24 22:00:00,32.2,29.5,30.11,West,262,0.8,1.1,90,0.00,,,0.01,WUHU216HW,2013-10-25 02:00:00,
2013-10-24 22:05:00,32.0,29.3,30.11,SW,218,0.5,1.1,90,0.00,,,0.01,WUHU216HW,2013-10-25 02:05:00,
2013-10-24 22:10:00,31.7,28.7,30.11,SSW,204,1.0,1.1,89,0.00,,,0.01,WUHU216HW,2013-10-25 02:10:00,
2013-10-24 22:15:00,31.3,28.3,30.11,SW,225,0.7,1.1,89,0.00,,,0.01,WUHU216HW,2013-10-25 02:15:00,
2013-10-24 22:20:00,31.0,28.0,30.11,WSW,240,1.5,3.1,89,0.00,,,0.01,WUHU216HW,2013-10-25 02:20:00,
2013-10-24 22:25:00,30.6,27.6,30.11,SW,225,0.5,0.9,89,0.00,,,0.01,WUHU216HW,2013-10-25 02:25:00,
2013-10-24 22:30:00,30.4,27.7,30.12,WSW,238,1.6,1.8,90,0.00,,,0.01,WUHU216HW,2013-10-25 02:30:00,
2013-10-24 22:35:00,30.2,27.6,30.12,WSW,242,1.5,2.5,90,0.00,,,0.01,WUHU216HW,2013-10-25 02:35:00,
2013-10-24 22:40:00,30.1,27.8,30.12,SW,230,1.0,1.8,91,0.00,,,0.01,WUHU216HW,2013-10-25 02:40:00,
2013-10-24 22:45:00,30.1,27.8,30.12,WSW,248,1.5,1.8,91,0.00,,,0.01,WUHU216HW,2013-10-25 02:45:00,
2013-10-24 22:50:00,30.1,28.1,30.12,WSW,255,2.9,3.4,92,0.00,,,0.01,WUHU216HW,2013-10-25 02:50:00,
2013-10-24 22:55:00,29.9,27.9,30.12,SW,225,2.3,2.5,92,0.00,,,0.01,WUHU216HW,2013-10-25 02:55:00,
2013-10-24 23:01:00,29.9,27.9,30.12,SW,225,2.0,2.2,92,0.00,,,0.01,WUHU216HW,2013-10-25 03:01:00,
2013-10-24 23:06:00,29.9,28.2,30.12,SW,226,1.3,1.8,93,0.00,,,0.01,WUHU216HW,2013-10-25 03:06:00,
2013-10-24 23:11:00,29.9,28.2,30.12,WSW,239,1.1,1.8,93,0.00,,,0.01,WUHU216HW,2013-10-25 03:11:00,
2013-10-24 23:16:00,29.9,28.2,30.12,SW,235,0.8,0.9,93,0.00,,,0.01,WUHU216HW,2013-10-25 03:16:00,
2013-10-24 23:21:00,29.9,28.2,30.12,WSW,248,1.7,2.5,93,0.00,,,0.01,WUHU216HW,2013-10-25 03:21:00,
2013-10-24 23:26:00,29.9,28.2,30.13,WSW,254,1.6,1.8,93,0.00,,,0.01,WUHU216HW,2013-10-25 03:26:00,
2013-10-24 23:31:00,29.9,28.2,30.13,West,261,1.3,1.6,93,0.00,,,0.01,WUHU216HW,2013-10-25 03:31:00,
2013-10-24 23:36:00,29.9,28.2,30.13,West,266,1.5,2.2,93,0.00,,,0.01,WUHU216HW,2013-10-25 03:36:00,
2013-10-24 23:41:00,29.7,28.2,30.13,WSW,257,0.8,1.1,94,0.00,,,0.01,WUHU216HW,2013-10-25 03:41:00,
2013-10-24 23:46:00,29.7,28.2,30.13,SW,235,1.4,1.8,94,0.00,,,0.01,WUHU216HW,2013-10-25 03:46:00,
2013-10-24 23:51:00,29.7,28.2,30.13,SW,227,0.5,1.1,94,0.00,,,0.01,WUHU216HW,2013-10-25 03:51:00,
2013-10-24 23:56:00,29.7,28.2,30.13,WSW,242,1.1,1.6,94,0.00,,,0.01,WUHU216HW,2013-10-25 03:56:00,